Lexington Weather

Lexington, Massachusetts, USA

66°F
9/23/2021 3:48am 
  • Lexington Conditions: Few Clouds
  • Temperature: 66.4°F / 19.1°CWarmer 0.2°F than last hour.
  • Dew Point: 65.1°FIncreased 0.2°Fsince last hour.
  • Relative Humidity: 96
  • Wind: Calm, 10-min avg: Calm, gust: 1 mph
  • Barometer: 30.04 in Steady
  • Visibility: 10 miles
  • Rain Today: 0.00 in
  •   

Regional Weather Roundup
for Boston / Norton, MA

        
000
ASUS41 KBOX 221304
RWRBOX

REGIONAL WEATHER ROUNDUP
NATIONAL WEATHER SERVICE BOSTON/NORTON MA
900 AM EDT WED SEP 22 2021

NOTE:  "FAIR" INDICATES FEW OR NO CLOUDS BELOW 12,000 FEET WITH NO 
SIGNIFICANT WEATHER AND/OR OBSTRUCTIONS TO VISIBILITY.

MAZALL-221400-
EASTERN MASSACHUSETTS
  
CITY           SKY/WX    TMP DP  RH WIND       PRES   REMARKS
BOSTON         PTSUNNY   71  65  81 SE5       30.22F                  
BEVERLY        MOSUNNY   70  67  90 SE8       30.22S                  
LAWRENCE       MOSUNNY   72  67  84 VRB3      30.23F                  
BEDFORD        PTSUNNY   72  67  84 S9        30.20F                  
BLUE HILL      NOT AVBL                                               
NORWOOD        CLOUDY    72  66  81 S7        30.22S                  
MARSHFIELD     MOSUNNY   70  66  88 SE7G15    30.23S                  
PLYMOUTH       MOSUNNY   72  66  81 SE7       30.24S                  
TAUNTON        CLOUDY    73  67  81 SE8       30.22S                  
NEW BEDFORD    CLOUDY    73  68  84 SE12      30.22S                  
$$

MAZALL-221400-
CAPE COD AND THE ISLANDS
  
CITY           SKY/WX    TMP DP  RH WIND       PRES   REMARKS
FALMOUTH       MOSUNNY  N/A N/A N/A SE9G18    30.24F                  
HYANNIS        SUNNY     71  66  84 SE9G16    30.23F                  
CHATHAM        MOSUNNY   69  62  78 SE9       30.27S                  
PROVINCETOWN   PTSUNNY   70  64  81 SE12G17   30.25S                  
NANTUCKET      MOSUNNY   71  65  81 SE14      30.25S                  
MARTHAS VNYRD  CLOUDY    72  68  87 SE14      30.22F                  
$$
 
MAZALL-221400-
CENTRAL AND WESTERN MASSACHUSETTS
  
CITY           SKY/WX    TMP DP  RH WIND       PRES   REMARKS
WORCESTER      CLOUDY    68  67  96 S9        30.23S                  
FITCHBURG      CLOUDY    70  66  87 SE8       30.22S                  
ORANGE         CLOUDY    71  66  84 S10       30.20F                  
SPRINGFIELD    PTSUNNY   72  67  83 S7        30.17F                  
WESTFIELD      LGT RAIN  66  65  96 CALM      30.18S FOG              
NORTH ADAMS    CLOUDY    70  65  84 E9        30.16F                  
PITTSFIELD     CLOUDY    68  65  90 SE10G18   30.16F                  
$$
 
RIZALL-221400-
RHODE ISLAND
  
CITY           SKY/WX    TMP DP  RH WIND       PRES   REMARKS
PROVIDENCE     PTSUNNY   74  69  85 SE9       30.21F                  
NEWPORT        PTSUNNY   70  68  93 SE9       30.21S                  
BLOCK ISLAND   CLOUDY    71  67  87 SE10      30.20F                  
SMITHFIELD     CLOUDY    71  68  90 VRB6      30.23S                  
WESTERLY       CLOUDY    70  69  97 E7        30.20S                  
$$
 
CTZALL-221400-
CONNECTICUT
  
CITY           SKY/WX    TMP DP  RH WIND       PRES   REMARKS
BRADLEY INTL   PTSUNNY   68  67  96 CALM      30.18S                  
HARTFORD       PTSUNNY   72  66  81 CALM      30.17S                  
BRIDGEPORT     PTSUNNY   75  70  84 S8        30.15F                  
DANBURY        CLOUDY    74  69  85 VRB3      30.17F                  
GROTON         CLOUDY    72  69  90 SE9       30.18F                  
NEW HAVEN      CLOUDY    76  72  87 SE9       30.16F                  
CHESTER        CLOUDY    72  72 100 VRB7      30.19S                  
MERIDEN        CLOUDY    73  68  84 SE6       30.17S                  
WILLIMANTIC    CLOUDY    71  68  90 S5        30.19F                  
OXFORD         CLOUDY    70  69  97 SE10      30.18F                  
$$

MEZ002-015-021-024-NHZ003-005-008-011-012-014-VTZ005-008-221400-
NORTHERN NEW ENGLAND
  
CITY           SKY/WX    TMP DP  RH WIND       PRES   REMARKS
PORTLAND ME    CLOUDY    66  64  93 S9        30.24S                  
BANGOR ME      CLOUDY    65  63  93 S12       30.25F                  
CONCORD NH     CLOUDY    66  65  96 S7        30.21F                  
MANCHESTER NH  CLOUDY    71  65  81 S7        30.20S                  
NASHUA NH      PTSUNNY   71  70  96 VRB3      30.22S                  
PORTSMOUTH NH  PTSUNNY   68  66  94 SE7       30.22F                  
JAFFREY NH     CLOUDY    70  67  90 S8        30.23S                  
KEENE NH       CLOUDY    66  65  96 CALM      30.20S                  
BURLINGTON VT  PTSUNNY   68  61  78 S10       30.12F                  
MT. WASHINGTON LGT RAIN  50  50 100 SW30G41     N/A  VSB 1/16         
$$

NYZ052-076-221400-
EASTERN NEW YORK
  
CITY           SKY/WX    TMP DP  RH WIND       PRES   REMARKS
ALBANY         PTSUNNY   66  66 100 SE7       30.13S                  
NEW YORK CITY  CLOUDY    75  69  81 S9        30.13S                  
$$
 
ANZALL-221400-
MARINE OBSERVATIONS
  
STATION/POSITION TIME  TEMP    WIND        PRES    VSBY  WAVE
                       AIR SEA DIR/SP/G                  HT/PER
                 (UTC) (F)     (DEG/KT/KT) (MB)    (MI)  (FT/S)
BOSTON BUOY      1240      65  150/ 10/ 12 1024.2F
BUZZARDS BAY     1200          120/ 19/ 20 1023.8F
NANTUCKET SOUND  1240   70 71  110/ 12/ 14 1024.0S
MASS BAY-STELLWA 1204   66     160/ 12/ 14 1023.4S  1 7/8  3/ 5
ISLE OF SHOALS   1200   66     170/ 11/ 12 1023.3R
S OF BLOCK IS    1226      70                N/A           5/ 6
$$

......................KEY.........................
  SKY/WX - SKY CONDITION/PRESENT WEATHER
  TMP    - TEMPERATURE IN FAHRENHEIT
  DWPT   - DEWPOINT IN FAHRENHEIT
  RH     - RELATIVE HUMIDITY IN PERCENT
  WIND   - DIRECTION AND SPEED IN MPH
  PRES   - MEAN SEA LEVEL PRESSURE IN INCHES OF HG
  WCI    - WIND CHILL INDEX
  VSB    - VISIBILITY IN MILES
  HX     - HEAT INDEX
  TC     - TEMPERATURE IN CELSIUS
  VRB    - VARIABLE WIND DIRECTION
  N/A    - NOT AVAILABLE
  
      

Other recent Regional Weather Roundups

Thu Sep 23, 3:04am

Thu Sep 23, 2:04am

Thu Sep 23, 1:04am

Thu Sep 23, 12:04am

Wed Sep 22, 11:04pm

Wed Sep 22, 10:04pm

Wed Sep 22, 9:04pm

Wed Sep 22, 8:04pm

Wed Sep 22, 7:04pm

Wed Sep 22, 6:04pm

Wed Sep 22, 5:04pm

Wed Sep 22, 4:04pm

Wed Sep 22, 3:04pm

Wed Sep 22, 2:04pm

Wed Sep 22, 1:04pm

Wed Sep 22, 12:05pm

Wed Sep 22, 11:04am

Wed Sep 22, 10:04am

Wed Sep 22, 8:04am

Wed Sep 22, 7:04am

Wed Sep 22, 6:04am

Wed Sep 22, 5:04am

Wed Sep 22, 4:04am

Wed Sep 22, 3:04am

Wed Sep 22, 2:04am

Wed Sep 22, 1:04am

Wed Sep 22, 12:04am

Tue Sep 21, 11:04pm

Tue Sep 21, 10:04pm

Tue Sep 21, 9:04pm

Tue Sep 21, 8:04pm

Tue Sep 21, 7:04pm

Tue Sep 21, 6:04pm

Tue Sep 21, 5:04pm

Tue Sep 21, 4:04pm

Tue Sep 21, 3:04pm

Tue Sep 21, 2:04pm

Tue Sep 21, 1:04pm

Tue Sep 21, 12:04pm

Tue Sep 21, 11:04am

Tue Sep 21, 10:04am

Tue Sep 21, 9:04am

Tue Sep 21, 8:04am

Tue Sep 21, 7:04am

Tue Sep 21, 6:04am

Tue Sep 21, 5:04am

Tue Sep 21, 4:04am

Tue Sep 21, 3:04am

Tue Sep 21, 2:04am

Tue Sep 21, 1:04am

Tue Sep 21, 12:04am

Mon Sep 20, 11:04pm

Mon Sep 20, 10:04pm

Mon Sep 20, 9:04pm

Mon Sep 20, 8:04pm

Mon Sep 20, 7:04pm

Mon Sep 20, 6:04pm

Mon Sep 20, 5:04pm

Mon Sep 20, 4:04pm

Mon Sep 20, 3:04pm

Mon Sep 20, 2:04pm

Mon Sep 20, 1:04pm

Mon Sep 20, 12:04pm

Mon Sep 20, 11:04am

Mon Sep 20, 10:04am

Mon Sep 20, 9:04am

Mon Sep 20, 7:04am

Mon Sep 20, 6:04am

Mon Sep 20, 5:04am

Mon Sep 20, 4:04am

Mon Sep 20, 3:04am

Mon Sep 20, 2:04am

Mon Sep 20, 1:04am

Mon Sep 20, 12:04am

Sun Sep 19, 11:04pm

Sun Sep 19, 10:04pm

Sun Sep 19, 9:04pm

Sun Sep 19, 8:04pm

Sun Sep 19, 7:04pm

Sun Sep 19, 6:04pm

Sun Sep 19, 5:04pm

Sun Sep 19, 4:04pm

Sun Sep 19, 3:04pm

Sun Sep 19, 2:05pm

Sun Sep 19, 1:04pm

Sun Sep 19, 12:04pm

Sun Sep 19, 11:04am

Sun Sep 19, 10:05am

Sun Sep 19, 9:04am

Sun Sep 19, 8:04am

Sun Sep 19, 7:04am

Sun Sep 19, 6:04am

Sun Sep 19, 5:04am

Sun Sep 19, 4:04am

Sun Sep 19, 3:04am

Sun Sep 19, 2:04am

Sun Sep 19, 1:04am

Sun Sep 19, 12:04am

Sat Sep 18, 11:05pm

Sat Sep 18, 10:04pm

Sat Sep 18, 9:04pm

Sat Sep 18, 8:04pm

Sat Sep 18, 7:04pm

Sat Sep 18, 6:04pm

Sat Sep 18, 5:04pm

Sat Sep 18, 4:04pm

Sat Sep 18, 3:04pm

Sat Sep 18, 2:04pm

Sat Sep 18, 1:04pm

Sat Sep 18, 12:04pm

Sat Sep 18, 11:04am

Sat Sep 18, 10:04am

Sat Sep 18, 9:04am

Sat Sep 18, 8:04am

Sat Sep 18, 7:04am

Sat Sep 18, 6:04am

Sat Sep 18, 5:04am

Sat Sep 18, 4:04am

Sat Sep 18, 3:04am

Sat Sep 18, 2:04am

Sat Sep 18, 1:04am

Sat Sep 18, 12:04am

Fri Sep 17, 11:04pm

Fri Sep 17, 10:04pm

Fri Sep 17, 9:04pm

Fri Sep 17, 8:04pm

Fri Sep 17, 7:04pm

Fri Sep 17, 6:04pm

Fri Sep 17, 5:04pm

Fri Sep 17, 4:04pm

Fri Sep 17, 3:04pm

Fri Sep 17, 2:04pm

Fri Sep 17, 1:04pm

Fri Sep 17, 12:05pm

Fri Sep 17, 11:04am

Fri Sep 17, 10:04am

Fri Sep 17, 9:04am

Fri Sep 17, 8:04am

Fri Sep 17, 7:04am

Fri Sep 17, 6:04am

Fri Sep 17, 5:04am

Fri Sep 17, 4:04am

Fri Sep 17, 3:04am

Fri Sep 17, 2:04am

Fri Sep 17, 1:04am

Fri Sep 17, 12:04am

Thu Sep 16, 11:04pm

Thu Sep 16, 10:04pm

Thu Sep 16, 9:04pm

Thu Sep 16, 8:04pm

Thu Sep 16, 7:04pm

Thu Sep 16, 6:04pm

Thu Sep 16, 5:04pm

Thu Sep 16, 4:04pm

Thu Sep 16, 3:04pm

Thu Sep 16, 2:04pm

Thu Sep 16, 1:05pm

Thu Sep 16, 12:04pm

Thu Sep 16, 11:05am

Thu Sep 16, 10:05am

Thu Sep 16, 9:04am

Thu Sep 16, 8:04am

Thu Sep 16, 7:04am

Thu Sep 16, 6:04am

Thu Sep 16, 5:04am

Thu Sep 16, 4:04am

Meta data:

ID: 05894188-6e8e-4beb-996d-40651fdc2517
Link: https://api.weather.gov/products/05894188-6e8e-4beb-996d-40651fdc2517